| time (UTC) | temp C | wind direction | speed KPH | gust KPH | rain 1hr cm | rain 24hr cm | rain mn cm | humidity % | barometer mb |
| 20260903044218 | 30 | 35 | 3.2 | 4.8 | 0.00 | 0.00 | 0.00 | 51 | 1014.9 |
| 20260903043716 | 30 | 170 | 6.4 | 6.4 | 0.00 | 0.00 | 0.00 | 51 | 1015.1 |
| 20260903043215 | 30 | 54 | 1.6 | 1.6 | 0.00 | 0.00 | 0.00 | 50 | 1015.1 |
| 20260903042714 | 30 | 178 | 6.4 | 9.7 | 0.00 | 0.00 | 0.00 | 50 | 1015.0 |
| 20260903042209 | 30 | 38 | 4.8 | 6.4 | 0.00 | 0.00 | 0.00 | 49 | 1014.7 |
| 20260903041706 | 30 | 74 | 6.4 | 6.4 | 0.00 | 0.00 | 0.00 | 49 | 1014.9 |
| 20260903041201 | 31 | 188 | 4.8 | 6.4 | 0.00 | 0.00 | 0.00 | 48 | 1014.9 |
| 20260903040700 | 31 | 114 | 4.8 | 4.8 | 0.00 | 0.00 | 0.00 | 48 | 1014.9 |
| 20260903040156 | 31 | 215 | 4.8 | 4.8 | 0.00 | 0.00 | 0.00 | 48 | 1014.8 |
| 20260903035651 | 31 | 48 | 1.6 | 1.6 | 0.00 | 0.00 | 0.00 | 47 | 1015.1 |
| 20260903035142 | 31 | 346 | 3.2 | 3.2 | 0.00 | 0.00 | 0.00 | 47 | 1015.1 |
| 20260903034642 | 31 | 138 | 4.8 | 4.8 | 0.00 | 0.00 | 0.00 | 46 | 1014.9 |
| 20260903034136 | 31 | 158 | 1.6 | 1.6 | 0.00 | 0.00 | 0.00 | 45 | 1014.9 |
| 20260903033632 | 31 | 236 | 1.6 | 3.2 | 0.00 | 0.00 | 0.00 | 45 | 1014.9 |
| 20260903033132 | 32 | 174 | 4.8 | 4.8 | 0.00 | 0.00 | 0.00 | 44 | 1014.8 |
| 20260903032627 | 32 | 158 | 4.8 | 4.8 | 0.00 | 0.00 | 0.00 | 44 | 1014.8 |
| 20260903032123 | 32 | 182 | 3.2 | 4.8 | 0.00 | 0.00 | 0.00 | 44 | 1014.8 |
| 20260903031618 | 32 | 28 | 3.2 | 4.8 | 0.00 | 0.00 | 0.00 | 44 | 1014.9 |
| 20260903031113 | 32 | 117 | 6.4 | 6.4 | 0.00 | 0.00 | 0.00 | 44 | 1014.8 |
| 20260903030609 | 32 | 47 | 4.8 | 4.8 | 0.00 | 0.00 | 0.00 | 44 | 1014.8 |
| 20260903030104 | 32 | 126 | 3.2 | 4.8 | 0.00 | 0.00 | 0.00 | 44 | 1014.6 |
| 20260903025559 | 32 | 66 | 1.6 | 3.2 | 0.00 | 0.00 | 0.00 | 44 | 1014.7 |
| 20260903025055 | 32 | 147 | 4.8 | 6.4 | 0.00 | 0.00 | 0.00 | 43 | 1014.5 |
| 20260903024555 | 32 | 61 | 1.6 | 3.2 | 0.00 | 0.00 | 0.00 | 43 | 1014.5 |
| 20260903024049 | 32 | 54 | 3.2 | 3.2 | 0.00 | 0.00 | 0.00 | 43 | 1014.6 |
| 20260903023544 | 32 | 103 | 6.4 | 6.4 | 0.00 | 0.00 | 0.00 | 42 | 1014.4 |
| 20260903023040 | 32 | 98 | 3.2 | 4.8 | 0.00 | 0.00 | 0.00 | 42 | 1014.5 |
| 20260903022539 | 32 | 43 | 0.0 | 0.0 | 0.00 | 0.00 | 0.00 | 42 | 1014.6 |
| 20260903022038 | 32 | 354 | 0.0 | 1.6 | 0.00 | 0.00 | 0.00 | 42 | 1014.6 |
| 20260903021533 | 33 | 172 | 1.6 | 3.2 | 0.00 | 0.00 | 0.00 | 42 | 1014.2 |
| 20260903021027 | 33 | 157 | 3.2 | 3.2 | 0.00 | 0.00 | 0.00 | 41 | 1014.4 |
| 20260903020524 | 33 | 30 | 0.0 | 1.6 | 0.00 | 0.00 | 0.00 | 42 | 1014.4 |
| 20260903020023 | 33 | 4 | 0.0 | 0.0 | 0.00 | 0.00 | 0.00 | 41 | 1014.0 |
| 20260903015520 | 33 | 15 | 0.0 | 0.0 | 0.00 | 0.00 | 0.00 | 41 | 1013.9 |
| 20260903015015 | 33 | 24 | 1.6 | 1.6 | 0.00 | 0.00 | 0.00 | 40 | 1014.0 |
| 20260903014514 | 33 | 72 | 3.2 | 3.2 | 0.00 | 0.00 | 0.00 | 40 | 1013.8 |
| 20260903014009 | 33 | 34 | 1.6 | 1.6 | 0.00 | 0.00 | 0.00 | 40 | 1013.8 |
| 20260903013508 | 33 | 26 | 0.0 | 1.6 | 0.00 | 0.00 | 0.00 | 40 | 1013.6 |
| 20260903013008 | 33 | 55 | 1.6 | 1.6 | 0.00 | 0.00 | 0.00 | 40 | 1013.6 |
| 20260903012508 | 33 | 21 | 0.0 | 0.0 | 0.00 | 0.00 | 0.00 | 40 | 1013.6 |
| 20260903012006 | 33 | 30 | 0.0 | 0.0 | 0.00 | 0.00 | 0.00 | 39 | 1013.7 |
| 20260903011501 | 33 | 32 | 0.0 | 1.6 | 0.00 | 0.00 | 0.00 | 39 | 1013.5 |
| 20260903010957 | 34 | 23 | 0.0 | 0.0 | 0.00 | 0.00 | 0.00 | 38 | 1013.4 |
| 20260903010457 | 34 | 55 | 0.0 | 0.0 | 0.00 | 0.00 | 0.00 | 38 | 1013.4 |
| 20260903005954 | 34 | 36 | 3.2 | 3.2 | 0.00 | 0.00 | 0.00 | 38 | 1013.2 |
| 20260903005450 | 35 | 62 | 1.6 | 3.2 | 0.00 | 0.00 | 0.00 | 37 | 1013.5 |
| 20260903004946 | 35 | 328 | 1.6 | 1.6 | 0.00 | 0.00 | 0.00 | 37 | 1013.3 |
| 20260903004440 | 35 | 342 | 0.0 | 0.0 | 0.00 | 0.00 | 0.00 | 36 | 1013.4 |
| 20260903003936 | 35 | 9 | 0.0 | 0.0 | 0.00 | 0.00 | 0.00 | 36 | 1013.6 |
| 20260903003436 | 35 | 12 | 1.6 | 3.2 | 0.00 | 0.00 | 0.00 | 36 | 1013.5 |
| 20260903002932 | 35 | 321 | 1.6 | 3.2 | 0.00 | 0.00 | 0.00 | 35 | 1013.4 |
| 20260903002426 | 36 | 191 | 3.2 | 3.2 | 0.00 | 0.00 | 0.00 | 35 | 1013.3 |
| 20260903001921 | 36 | 75 | 3.2 | 3.2 | 0.00 | 0.00 | 0.00 | 35 | 1013.5 |
| 20260903001421 | 36 | 63 | 3.2 | 3.2 | 0.00 | 0.00 | 0.00 | 34 | 1013.4 |
| 20260903000920 | 36 | 214 | 4.8 | 6.4 | 0.00 | 0.00 | 0.00 | 34 | 1013.4 |
| 20260903000417 | 36 | 27 | 3.2 | 3.2 | 0.00 | 0.00 | 0.00 | 34 | 1013.3 |
| 20260902235914 | 36 | 126 | 6.4 | 9.7 | 0.00 | 0.00 | 0.00 | 33 | 1013.4 |
| 20260902235409 | 36 | 224 | 8.0 | 11.3 | 0.00 | 0.00 | 0.00 | 33 | 1013.5 |
| 20260902234909 | 36 | 192 | 3.2 | 4.8 | 0.00 | 0.00 | 0.00 | 33 | 1013.5 |
| 20260902234404 | 36 | 97 | 3.2 | 4.8 | 0.00 | 0.00 | 0.00 | 33 | 1013.5 |
| 20260902233902 | 36 | 185 | 4.8 | 6.4 | 0.00 | 0.00 | 0.00 | 33 | 1013.5 |
| 20260902233357 | 37 | 225 | 4.8 | 6.4 | 0.00 | 0.00 | 0.00 | 33 | 1013.4 |
| 20260902232855 | 37 | 159 | 8.0 | 11.3 | 0.00 | 0.00 | 0.00 | 33 | 1013.7 |
| 20260902232351 | 37 | 210 | 4.8 | 6.4 | 0.00 | 0.00 | 0.00 | 33 | 1013.7 |
| 20260902231850 | 37 | 194 | 6.4 | 9.7 | 0.00 | 0.00 | 0.00 | 33 | 1013.6 |
| 20260902231345 | 37 | 176 | 6.4 | 6.4 | 0.00 | 0.00 | 0.00 | 32 | 1013.6 |
| 20260902230841 | 37 | 271 | 1.6 | 3.2 | 0.00 | 0.00 | 0.00 | 32 | 1013.4 |
| 20260902230340 | 37 | 1 | 1.6 | 1.6 | 0.00 | 0.00 | 0.00 | 32 | 1013.7 |
| 20260902225840 | 37 | 11 | 3.2 | 3.2 | 0.00 | 0.00 | 0.00 | 33 | 1013.7 |
| 20260902225335 | 37 | 98 | 6.4 | 11.3 | 0.00 | 0.00 | 0.00 | 33 | 1013.8 |
| 20260902224833 | 37 | 191 | 6.4 | 6.4 | 0.00 | 0.00 | 0.00 | 33 | 1013.6 |
| 20260902224328 | 37 | 85 | 6.4 | 9.7 | 0.00 | 0.00 | 0.00 | 32 | 1013.6 |
| 20260902223826 | 38 | 96 | 11.3 | 14.5 | 0.00 | 0.00 | 0.00 | 31 | 1013.7 |
| 20260902223326 | 37 | 225 | 3.2 | 4.8 | 0.00 | 0.00 | 0.00 | 32 | 1013.7 |
| 20260902222825 | 38 | 182 | 6.4 | 6.4 | 0.00 | 0.00 | 0.00 | 32 | 1014.0 |
| 20260902222324 | 38 | 117 | 3.2 | 4.8 | 0.00 | 0.00 | 0.00 | 32 | 1013.9 |
| 20260902221818 | 37 | 145 | 8.0 | 11.3 | 0.00 | 0.00 | 0.00 | 31 | 1013.8 |
| 20260902221318 | 37 | 157 | 9.7 | 12.9 | 0.00 | 0.00 | 0.00 | 32 | 1014.0 |
| 20260902220814 | 38 | 88 | 6.4 | 9.7 | 0.00 | 0.00 | 0.00 | 32 | 1013.9 |
| 20260902220313 | 38 | 141 | 8.0 | 11.3 | 0.00 | 0.00 | 0.00 | 30 | 1013.9 |
| 20260902215809 | 38 | 45 | 3.2 | 4.8 | 0.00 | 0.00 | 0.00 | 30 | 1013.9 |
| 20260902215309 | 37 | 7 | 1.6 | 1.6 | 0.00 | 0.00 | 0.00 | 33 | 1013.9 |
| 20260902214805 | 37 | 77 | 6.4 | 6.4 | 0.00 | 0.00 | 0.00 | 34 | 1014.1 |
| 20260902214303 | 37 | 91 | 4.8 | 6.4 | 0.00 | 0.00 | 0.00 | 33 | 1014.2 |
| 20260902213759 | 38 | 65 | 4.8 | 4.8 | 0.00 | 0.00 | 0.00 | 32 | 1014.1 |
| 20260902213254 | 38 | 207 | 11.3 | 12.9 | 0.00 | 0.00 | 0.00 | 32 | 1014.2 |
| 20260902212753 | 37 | 142 | 3.2 | 6.4 | 0.00 | 0.00 | 0.00 | 32 | 1014.4 |
| 20260902212250 | 37 | 153 | 6.4 | 6.4 | 0.00 | 0.00 | 0.00 | 33 | 1014.6 |
| 20260902211746 | 37 | 136 | 4.8 | 6.4 | 0.00 | 0.00 | 0.00 | 33 | 1014.5 |
| 20260902211242 | 38 | 219 | 6.4 | 9.7 | 0.00 | 0.00 | 0.00 | 32 | 1014.6 |
| 20260902210741 | 37 | 185 | 8.0 | 9.7 | 0.00 | 0.00 | 0.00 | 32 | 1014.6 |
| 20260902210236 | 38 | 220 | 8.0 | 9.7 | 0.00 | 0.00 | 0.00 | 30 | 1014.7 |
| 20260902205734 | 38 | 66 | 1.6 | 1.6 | 0.00 | 0.00 | 0.00 | 31 | 1014.6 |
| 20260902205230 | 38 | 158 | 6.4 | 11.3 | 0.00 | 0.00 | 0.00 | 31 | 1014.8 |
| 20260902204725 | 39 | 54 | 4.8 | 6.4 | 0.00 | 0.00 | 0.00 | 31 | 1014.9 |
| 20260902204220 | 39 | 7 | 3.2 | 4.8 | 0.00 | 0.00 | 0.00 | 31 | 1014.8 |
| 20260902203715 | 39 | 326 | 3.2 | 4.8 | 0.00 | 0.00 | 0.00 | 31 | 1014.8 |
| 20260902203215 | 38 | 284 | 3.2 | 3.2 | 0.00 | 0.00 | 0.00 | 32 | 1014.9 |
| 20260902202710 | 38 | 36 | 1.6 | 1.6 | 0.00 | 0.00 | 0.00 | 32 | 1014.8 |
| 20260902202207 | 37 | 155 | 6.4 | 6.4 | 0.00 | 0.00 | 0.00 | 33 | 1015.1 |
| 20260902201703 | 37 | 163 | 6.4 | 9.7 | 0.00 | 0.00 | 0.00 | 34 | 1015.1 |
| 20260902201202 | 37 | 270 | 3.2 | 4.8 | 0.00 | 0.00 | 0.00 | 34 | 1015.4 |
| 20260902200657 | 37 | 156 | 6.4 | 9.7 | 0.00 | 0.00 | 0.00 | 33 | 1015.3 |
| 20260902200153 | 37 | 94 | 6.4 | 9.7 | 0.00 | 0.00 | 0.00 | 34 | 1015.4 |
| 20260902195648 | 38 | 231 | 4.8 | 9.7 | 0.00 | 0.00 | 0.00 | 33 | 1015.5 |
| 20260902195148 | 38 | 192 | 8.0 | 11.3 | 0.00 | 0.00 | 0.00 | 32 | 1015.4 |
| 20260902194646 | 38 | 288 | 6.4 | 6.4 | 0.00 | 0.00 | 0.00 | 33 | 1015.7 |
| 20260902194142 | 37 | 24 | 0.0 | 0.0 | 0.00 | 0.00 | 0.00 | 33 | 1015.7 |
| 20260902193638 | 37 | 39 | 1.6 | 1.6 | 0.00 | 0.00 | 0.00 | 34 | 1015.6 |
| 20260902193138 | 37 | 13 | 4.8 | 4.8 | 0.00 | 0.00 | 0.00 | 34 | 1015.9 |
| 20260902192636 | 38 | 241 | 8.0 | 11.3 | 0.00 | 0.00 | 0.00 | 34 | 1015.8 |
| 20260902192131 | 37 | 111 | 3.2 | 4.8 | 0.00 | 0.00 | 0.00 | 35 | 1015.9 |
| 20260902191626 | 37 | 172 | 8.0 | 9.7 | 0.00 | 0.00 | 0.00 | 35 | 1016.0 |
| 20260902191125 | 36 | 309 | 4.8 | 4.8 | 0.00 | 0.00 | 0.00 | 37 | 1015.9 |
| 20260902190621 | 36 | 183 | 4.8 | 9.7 | 0.00 | 0.00 | 0.00 | 38 | 1015.9 |
| 20260902190116 | 37 | 270 | 3.2 | 3.2 | 0.00 | 0.00 | 0.00 | 37 | 1016.2 |
| 20260902185612 | 37 | 206 | 4.8 | 6.4 | 0.00 | 0.00 | 0.00 | 37 | 1016.4 |
| 20260902185107 | 37 | 206 | 9.7 | 14.5 | 0.00 | 0.00 | 0.00 | 35 | 1016.4 |
| 20260902184602 | 37 | 265 | 3.2 | 4.8 | 0.00 | 0.00 | 0.00 | 37 | 1016.4 |
| 20260902184057 | 37 | 240 | 4.8 | 4.8 | 0.00 | 0.00 | 0.00 | 37 | 1016.6 |
| 20260902183554 | 37 | 318 | 6.4 | 9.7 | 0.00 | 0.00 | 0.00 | 37 | 1016.7 |
| 20260902183050 | 36 | 131 | 6.4 | 11.3 | 0.00 | 0.00 | 0.00 | 38 | 1016.8 |
| 20260902182546 | 37 | 141 | 8.0 | 11.3 | 0.00 | 0.00 | 0.00 | 37 | 1017.0 |
| 20260902182042 | 37 | 210 | 6.4 | 9.7 | 0.00 | 0.00 | 0.00 | 36 | 1016.9 |
| 20260902181538 | 37 | 295 | 4.8 | 9.7 | 0.00 | 0.00 | 0.00 | 37 | 1017.2 |
| 20260902181037 | 36 | 159 | 8.0 | 11.3 | 0.00 | 0.00 | 0.00 | 38 | 1017.0 |
| 20260902180532 | 36 | 213 | 4.8 | 4.8 | 0.00 | 0.00 | 0.00 | 39 | 1016.8 |
| 20260902180028 | 36 | 221 | 9.7 | 14.5 | 0.00 | 0.00 | 0.00 | 39 | 1017.3 |
| 20260902175528 | 36 | 114 | 4.8 | 6.4 | 0.00 | 0.00 | 0.00 | 38 | 1017.3 |
| 20260902175024 | 36 | 258 | 3.2 | 3.2 | 0.00 | 0.00 | 0.00 | 39 | 1017.4 |
| 20260902174520 | 36 | 143 | 6.4 | 9.7 | 0.00 | 0.00 | 0.00 | 41 | 1017.3 |
| 20260902174015 | 36 | 165 | 6.4 | 6.4 | 0.00 | 0.00 | 0.00 | 40 | 1017.5 |
| 20260902173515 | 35 | 256 | 4.8 | 4.8 | 0.00 | 0.00 | 0.00 | 42 | 1017.6 |
| 20260902173010 | 36 | 219 | 8.0 | 14.5 | 0.00 | 0.00 | 0.00 | 41 | 1017.6 |
| 20260902172509 | 36 | 222 | 3.2 | 4.8 | 0.00 | 0.00 | 0.00 | 41 | 1017.8 |
| 20260902172005 | 35 | 150 | 3.2 | 4.8 | 0.00 | 0.00 | 0.00 | 41 | 1018.0 |
| 20260902171500 | 35 | 251 | 11.3 | 16.1 | 0.00 | 0.00 | 0.00 | 41 | 1017.8 |
| 20260902170956 | 35 | 228 | 3.2 | 4.8 | 0.00 | 0.00 | 0.00 | 42 | 1018.0 |
| 20260902170456 | 35 | 233 | 4.8 | 4.8 | 0.00 | 0.00 | 0.00 | 41 | 1017.9 |
| 20260902165952 | 35 | 353 | 3.2 | 4.8 | 0.00 | 0.00 | 0.00 | 42 | 1017.9 |
| 20260902165451 | 35 | 201 | 9.7 | 12.9 | 0.00 | 0.00 | 0.00 | 43 | 1018.1 |
| 20260902164946 | 35 | 197 | 4.8 | 9.7 | 0.00 | 0.00 | 0.00 | 43 | 1018.1 |
| 20260902164441 | 35 | 188 | 1.6 | 3.2 | 0.00 | 0.00 | 0.00 | 42 | 1018.3 |
| 20260902163940 | 34 | 229 | 6.4 | 6.4 | 0.00 | 0.00 | 0.00 | 45 | 1018.2 |
| 20260902163436 | 34 | 333 | 6.4 | 6.4 | 0.00 | 0.00 | 0.00 | 44 | 1018.2 |
| 20260902162933 | 34 | 145 | 6.4 | 9.7 | 0.00 | 0.00 | 0.00 | 45 | 1018.3 |
| 20260902162429 | 34 | 253 | 3.2 | 3.2 | 0.00 | 0.00 | 0.00 | 45 | 1018.3 |
| 20260902161928 | 34 | 0 | 6.4 | 9.7 | 0.00 | 0.00 | 0.00 | 46 | 1018.6 |
| 20260902161424 | 34 | 347 | 3.2 | 3.2 | 0.00 | 0.00 | 0.00 | 46 | 1018.5 |
| 20260902160920 | 33 | 234 | 8.0 | 11.3 | 0.00 | 0.00 | 0.00 | 46 | 1018.4 |
| 20260902160415 | 33 | 279 | 9.7 | 12.9 | 0.00 | 0.00 | 0.00 | 48 | 1018.4 |
| 20260902155913 | 32 | 199 | 4.8 | 4.8 | 0.00 | 0.00 | 0.00 | 50 | 1018.4 |
| 20260902155408 | 33 | 204 | 8.0 | 12.9 | 0.00 | 0.00 | 0.00 | 49 | 1018.6 |
| 20260902154902 | 32 | 288 | 4.8 | 6.4 | 0.00 | 0.00 | 0.00 | 50 | 1018.6 |
| 20260902154358 | 32 | 228 | 3.2 | 3.2 | 0.00 | 0.00 | 0.00 | 52 | 1018.6 |
| 20260902153857 | 32 | 166 | 8.0 | 12.9 | 0.00 | 0.00 | 0.00 | 52 | 1018.6 |
| 20260902153356 | 31 | 318 | 1.6 | 3.2 | 0.00 | 0.00 | 0.00 | 54 | 1018.4 |
| 20260902152852 | 32 | 218 | 8.0 | 11.3 | 0.00 | 0.00 | 0.00 | 53 | 1018.8 |
| 20260902152348 | 31 | 161 | 3.2 | 6.4 | 0.00 | 0.00 | 0.00 | 53 | 1018.5 |
| 20260902151843 | 31 | 161 | 4.8 | 4.8 | 0.00 | 0.00 | 0.00 | 54 | 1018.6 |
| 20260902151338 | 31 | 119 | 4.8 | 4.8 | 0.00 | 0.00 | 0.00 | 53 | 1018.4 |
| 20260902150833 | 31 | 34 | 3.2 | 3.2 | 0.00 | 0.00 | 0.00 | 54 | 1018.5 |
| 20260902150329 | 31 | 240 | 6.4 | 6.4 | 0.00 | 0.00 | 0.00 | 54 | 1018.5 |
| 20260902145828 | 31 | 19 | 1.6 | 3.2 | 0.00 | 0.00 | 0.00 | 54 | 1018.6 |
| 20260902145324 | 31 | 43 | 3.2 | 3.2 | 0.00 | 0.00 | 0.00 | 53 | 1018.3 |
| 20260902144819 | 32 | 266 | 9.7 | 14.5 | 0.00 | 0.00 | 0.00 | 52 | 1018.2 |
| 20260902144316 | 31 | 302 | 4.8 | 6.4 | 0.00 | 0.00 | 0.00 | 53 | 1018.4 |
| 20260902143810 | 31 | 167 | 9.7 | 12.9 | 0.00 | 0.00 | 0.00 | 53 | 1018.3 |
| 20260902143305 | 31 | 255 | 8.0 | 11.3 | 0.00 | 0.00 | 0.00 | 52 | 1018.4 |
| 20260902142801 | 31 | 198 | 4.8 | 6.4 | 0.00 | 0.00 | 0.00 | 53 | 1018.3 |
| 20260902142256 | 31 | 222 | 4.8 | 4.8 | 0.00 | 0.00 | 0.00 | 54 | 1018.4 |
| 20260902141756 | 31 | 187 | 4.8 | 6.4 | 0.00 | 0.00 | 0.00 | 53 | 1018.4 |
| 20260902141252 | 30 | 189 | 11.3 | 14.5 | 0.00 | 0.00 | 0.00 | 54 | 1018.2 |
| 20260902140746 | 30 | 164 | 6.4 | 9.7 | 0.00 | 0.00 | 0.00 | 55 | 1018.4 |
| 20260902140241 | 30 | 263 | 4.8 | 4.8 | 0.00 | 0.00 | 0.00 | 56 | 1018.4 |
| 20260902135740 | 30 | 271 | 4.8 | 6.4 | 0.00 | 0.00 | 0.00 | 56 | 1018.6 |
| 20260902135236 | 30 | 195 | 6.4 | 11.3 | 0.00 | 0.00 | 0.00 | 56 | 1018.5 |
| 20260902134736 | 29 | 187 | 4.8 | 4.8 | 0.00 | 0.00 | 0.00 | 56 | 1018.3 |
| 20260902134231 | 28 | 192 | 6.4 | 11.3 | 0.00 | 0.00 | 0.00 | 58 | 1018.2 |
| 20260902133726 | 28 | 199 | 8.0 | 9.7 | 0.00 | 0.00 | 0.00 | 58 | 1018.3 |
| 20260902133225 | 28 | 251 | 6.4 | 6.4 | 0.00 | 0.00 | 0.00 | 58 | 1018.3 |
| 20260902132721 | 28 | 204 | 4.8 | 6.4 | 0.00 | 0.00 | 0.00 | 59 | 1018.3 |
| 20260902132216 | 28 | 213 | 6.4 | 9.7 | 0.00 | 0.00 | 0.00 | 59 | 1018.5 |
| 20260902131712 | 28 | 190 | 6.4 | 11.3 | 0.00 | 0.00 | 0.00 | 60 | 1018.5 |
| 20260902131209 | 28 | 86 | 3.2 | 3.2 | 0.00 | 0.00 | 0.00 | 60 | 1018.3 |
| 20260902130708 | 28 | 226 | 8.0 | 11.3 | 0.00 | 0.00 | 0.00 | 60 | 1018.4 |
| 20260902130204 | 28 | 63 | 4.8 | 6.4 | 0.00 | 0.00 | 0.00 | 61 | 1018.2 |
| 20260902125700 | 28 | 176 | 4.8 | 6.4 | 0.00 | 0.00 | 0.00 | 61 | 1018.4 |
| 20260902125156 | 28 | 69 | 3.2 | 3.2 | 0.00 | 0.00 | 0.00 | 61 | 1018.3 |
| 20260902124652 | 28 | 134 | 6.4 | 6.4 | 0.00 | 0.00 | 0.00 | 61 | 1018.3 |
| 20260902124151 | 27 | 181 | 3.2 | 3.2 | 0.00 | 0.00 | 0.00 | 62 | 1018.1 |
| 20260902123647 | 27 | 121 | 3.2 | 4.8 | 0.00 | 0.00 | 0.00 | 62 | 1018.0 |
| 20260902123142 | 27 | 167 | 4.8 | 6.4 | 0.00 | 0.00 | 0.00 | 63 | 1018.2 |
| 20260902122637 | 27 | 94 | 6.4 | 6.4 | 0.00 | 0.00 | 0.00 | 63 | 1018.0 |
| 20260902122133 | 27 | 62 | 3.2 | 4.8 | 0.00 | 0.00 | 0.00 | 64 | 1018.0 |
| 20260902121632 | 27 | 186 | 6.4 | 11.3 | 0.00 | 0.00 | 0.00 | 64 | 1017.9 |
| 20260902121127 | 27 | 171 | 9.7 | 11.3 | 0.00 | 0.00 | 0.00 | 64 | 1017.6 |
| 20260902120623 | 27 | 181 | 6.4 | 9.7 | 0.00 | 0.00 | 0.00 | 64 | 1017.6 |
| 20260902120120 | 27 | 163 | 6.4 | 6.4 | 0.00 | 0.00 | 0.00 | 64 | 1017.6 |
| 20260902115614 | 27 | 78 | 4.8 | 6.4 | 0.00 | 0.00 | 0.00 | 63 | 1017.6 |
| 20260902115110 | 27 | 108 | 1.6 | 3.2 | 0.00 | 0.00 | 0.00 | 63 | 1017.5 |
| 20260902114606 | 27 | 329 | 6.4 | 9.7 | 0.00 | 0.00 | 0.00 | 63 | 1017.4 |
| 20260902114105 | 27 | 202 | 8.0 | 9.7 | 0.00 | 0.00 | 0.00 | 63 | 1017.3 |
| 20260902113601 | 27 | 112 | 8.0 | 12.9 | 0.00 | 0.00 | 0.00 | 63 | 1017.3 |
| 20260902113056 | 27 | 185 | 9.7 | 11.3 | 0.00 | 0.00 | 0.00 | 63 | 1017.3 |
| 20260902112551 | 27 | 9 | 3.2 | 4.8 | 0.00 | 0.00 | 0.00 | 63 | 1017.3 |
| 20260902112048 | 27 | 178 | 6.4 | 6.4 | 0.00 | 0.00 | 0.00 | 63 | 1017.1 |
| 20260902111544 | 27 | 131 | 6.4 | 9.7 | 0.00 | 0.00 | 0.00 | 63 | 1017.2 |
| 20260902111040 | 27 | 186 | 4.8 | 6.4 | 0.00 | 0.00 | 0.00 | 63 | 1017.2 |
| 20260902110536 | 27 | 208 | 4.8 | 4.8 | 0.00 | 0.00 | 0.00 | 63 | 1017.2 |
| 20260902110031 | 27 | 152 | 3.2 | 3.2 | 0.00 | 0.00 | 0.00 | 63 | 1017.2 |
| 20260902105531 | 27 | 131 | 3.2 | 4.8 | 0.00 | 0.00 | 0.00 | 63 | 1017.2 |
| 20260902105025 | 27 | 38 | 3.2 | 3.2 | 0.00 | 0.00 | 0.00 | 62 | 1017.1 |
| 20260902104521 | 27 | 47 | 1.6 | 3.2 | 0.00 | 0.00 | 0.00 | 62 | 1017.1 |
| 20260902104016 | 27 | 76 | 3.2 | 3.2 | 0.00 | 0.00 | 0.00 | 62 | 1017.1 |
| 20260902103511 | 27 | 169 | 1.6 | 3.2 | 0.00 | 0.00 | 0.00 | 61 | 1017.1 |
| 20260902103007 | 27 | 54 | 1.6 | 3.2 | 0.00 | 0.00 | 0.00 | 61 | 1016.9 |
| 20260902102503 | 27 | 148 | 1.6 | 3.2 | 0.00 | 0.00 | 0.00 | 61 | 1017.2 |
| 20260902102000 | 27 | 109 | 6.4 | 6.4 | 0.00 | 0.00 | 0.00 | 61 | 1017.1 |
| 20260902101459 | 28 | 188 | 4.8 | 6.4 | 0.00 | 0.00 | 0.00 | 61 | 1017.1 |
| 20260902100958 | 28 | 168 | 1.6 | 4.8 | 0.00 | 0.00 | 0.00 | 60 | 1017.1 |
| 20260902100453 | 28 | 266 | 8.0 | 11.3 | 0.00 | 0.00 | 0.00 | 60 | 1017.1 |
| 20260902095953 | 28 | 106 | 1.6 | 3.2 | 0.00 | 0.00 | 0.00 | 60 | 1017.0 |
| 20260902095448 | 28 | 316 | 3.2 | 3.2 | 0.00 | 0.00 | 0.00 | 60 | 1017.1 |
| 20260902094947 | 28 | 28 | 3.2 | 4.8 | 0.00 | 0.00 | 0.00 | 60 | 1016.9 |
| 20260902094444 | 28 | 40 | 1.6 | 3.2 | 0.00 | 0.00 | 0.00 | 60 | 1016.8 |
| 20260902093944 | 28 | 192 | 8.0 | 9.7 | 0.00 | 0.00 | 0.00 | 59 | 1016.9 |
| 20260902093439 | 28 | 35 | 4.8 | 4.8 | 0.00 | 0.00 | 0.00 | 59 | 1016.8 |
| 20260902092938 | 28 | 23 | 1.6 | 3.2 | 0.00 | 0.00 | 0.00 | 59 | 1017.0 |
| 20260902092434 | 28 | 131 | 4.8 | 6.4 | 0.00 | 0.00 | 0.00 | 59 | 1016.6 |
| 20260902091933 | 28 | 176 | 9.7 | 12.9 | 0.00 | 0.00 | 0.00 | 59 | 1017.0 |
| 20260902091429 | 28 | 189 | 4.8 | 4.8 | 0.00 | 0.00 | 0.00 | 58 | 1016.9 |
| 20260902090925 | 28 | 125 | 3.2 | 4.8 | 0.00 | 0.00 | 0.00 | 58 | 1016.7 |
| 20260902090425 | 28 | 126 | 6.4 | 6.4 | 0.00 | 0.00 | 0.00 | 58 | 1016.6 |
| 20260902085924 | 28 | 129 | 4.8 | 6.4 | 0.00 | 0.00 | 0.00 | 58 | 1016.6 |
| 20260902085420 | 28 | 90 | 4.8 | 4.8 | 0.00 | 0.00 | 0.00 | 58 | 1016.7 |
| 20260902084915 | 28 | 113 | 4.8 | 4.8 | 0.00 | 0.00 | 0.00 | 58 | 1016.6 |
| 20260902084411 | 28 | 183 | 8.0 | 11.3 | 0.00 | 0.00 | 0.00 | 58 | 1016.8 |
| 20260902083907 | 28 | 212 | 6.4 | 6.4 | 0.00 | 0.00 | 0.00 | 57 | 1016.7 |
| 20260902083406 | 28 | 50 | 4.8 | 4.8 | 0.00 | 0.00 | 0.00 | 57 | 1016.5 |
| 20260902082901 | 28 | 190 | 8.0 | 11.3 | 0.00 | 0.00 | 0.00 | 57 | 1016.6 |
| 20260902082357 | 28 | 150 | 4.8 | 6.4 | 0.00 | 0.00 | 0.00 | 57 | 1016.7 |
| 20260902081854 | 28 | 216 | 3.2 | 4.8 | 0.00 | 0.00 | 0.00 | 57 | 1016.6 |
| 20260902081349 | 29 | 118 | 6.4 | 12.9 | 0.00 | 0.00 | 0.00 | 56 | 1016.7 |
| 20260902080844 | 29 | 133 | 6.4 | 9.7 | 0.00 | 0.00 | 0.00 | 56 | 1016.6 |
| 20260902080341 | 29 | 187 | 14.5 | 17.7 | 0.00 | 0.00 | 0.00 | 56 | 1016.6 |
| 20260902075840 | 29 | 203 | 8.0 | 11.3 | 0.00 | 0.00 | 0.00 | 56 | 1016.8 |
| 20260902075336 | 29 | 164 | 4.8 | 4.8 | 0.00 | 0.00 | 0.00 | 56 | 1016.7 |
| 20260902074831 | 29 | 107 | 1.6 | 3.2 | 0.00 | 0.00 | 0.00 | 55 | 1016.7 |
| 20260902074327 | 29 | 180 | 6.4 | 11.3 | 0.00 | 0.00 | 0.00 | 55 | 1016.4 |
| 20260902073821 | 29 | 71 | 6.4 | 6.4 | 0.00 | 0.00 | 0.00 | 55 | 1016.7 |
| 20260902073318 | 29 | 206 | 11.3 | 22.5 | 0.00 | 0.00 | 0.00 | 55 | 1016.7 |
| 20260902072814 | 30 | 125 | 8.0 | 9.7 | 0.00 | 0.00 | 0.00 | 54 | 1016.7 |
| 20260902072310 | 30 | 74 | 6.4 | 9.7 | 0.00 | 0.00 | 0.00 | 54 | 1016.4 |
| 20260902071805 | 30 | 211 | 9.7 | 11.3 | 0.00 | 0.00 | 0.00 | 54 | 1016.6 |
| 20260902071300 | 30 | 68 | 8.0 | 11.3 | 0.00 | 0.00 | 0.00 | 54 | 1016.5 |
| 20260902070756 | 30 | 189 | 4.8 | 6.4 | 0.00 | 0.00 | 0.00 | 54 | 1016.6 |
| 20260902070256 | 30 | 183 | 4.8 | 6.4 | 0.00 | 0.00 | 0.00 | 54 | 1016.5 |
| 20260902065755 | 30 | 172 | 8.0 | 11.3 | 0.00 | 0.00 | 0.00 | 53 | 1016.4 |
| 20260902065250 | 30 | 122 | 8.0 | 9.7 | 0.00 | 0.00 | 0.00 | 53 | 1016.7 |
| 20260902064746 | 30 | 39 | 6.4 | 11.3 | 0.00 | 0.00 | 0.00 | 53 | 1016.6 |
| 20260902064242 | 30 | 178 | 6.4 | 6.4 | 0.00 | 0.00 | 0.00 | 53 | 1016.5 |
| 20260902063737 | 30 | 89 | 8.0 | 9.7 | 0.00 | 0.00 | 0.00 | 53 | 1016.7 |
| 20260902063232 | 30 | 319 | 3.2 | 3.2 | 0.00 | 0.00 | 0.00 | 53 | 1016.4 |
| 20260902062731 | 29 | 195 | 8.0 | 9.7 | 0.00 | 0.00 | 0.00 | 54 | 1016.6 |
| 20260902062226 | 29 | 127 | 9.7 | 17.7 | 0.00 | 0.00 | 0.00 | 54 | 1016.7 |
| 20260902061725 | 29 | 147 | 3.2 | 4.8 | 0.00 | 0.00 | 0.00 | 54 | 1016.5 |
| 20260902061221 | 29 | 174 | 6.4 | 6.4 | 0.00 | 0.00 | 0.00 | 54 | 1016.7 |
| 20260902060717 | 29 | 92 | 4.8 | 4.8 | 0.00 | 0.00 | 0.00 | 54 | 1016.5 |
| 20260902060213 | 29 | 300 | 1.6 | 1.6 | 0.00 | 0.00 | 0.00 | 54 | 1016.5 |
| 20260902055709 | 29 | 81 | 6.4 | 9.7 | 0.00 | 0.00 | 0.00 | 53 | 1016.5 |
| 20260902055204 | 29 | 157 | 6.4 | 9.7 | 0.00 | 0.00 | 0.00 | 53 | 1016.5 |
| 20260902054659 | 29 | 118 | 4.8 | 4.8 | 0.00 | 0.00 | 0.00 | 53 | 1016.5 |
| 20260902054155 | 29 | 48 | 1.6 | 3.2 | 0.00 | 0.00 | 0.00 | 53 | 1016.3 |
| 20260902053650 | 29 | 95 | 4.8 | 6.4 | 0.00 | 0.00 | 0.00 | 53 | 1016.5 |
| 20260902053150 | 29 | 137 | 4.8 | 6.4 | 0.00 | 0.00 | 0.00 | 52 | 1016.6 |
| 20260902052649 | 29 | 158 | 3.2 | 3.2 | 0.00 | 0.00 | 0.00 | 52 | 1016.5 |
| 20260902052145 | 29 | 77 | 4.8 | 4.8 | 0.00 | 0.00 | 0.00 | 52 | 1016.6 |
| 20260902051644 | 29 | 348 | 0.0 | 1.6 | 0.00 | 0.00 | 0.00 | 53 | 1016.7 |
| 20260902051139 | 29 | 80 | 1.6 | 1.6 | 0.00 | 0.00 | 0.00 | 52 | 1016.6 |
| 20260902050633 | 29 | 43 | 0.0 | 0.0 | 0.00 | 0.00 | 0.00 | 52 | 1016.7 |
| 20260902050129 | 29 | 8 | 1.6 | 1.6 | 0.00 | 0.00 | 0.00 | 52 | 1016.6 |
| 20260902045624 | 29 | 92 | 1.6 | 3.2 | 0.00 | 0.00 | 0.00 | 52 | 1016.7 |
| 20260902045120 | 29 | 22 | 0.0 | 1.6 | 0.00 | 0.00 | 0.00 | 52 | 1016.6 |
| 20260902044615 | 29 | 10 | 3.2 | 3.2 | 0.00 | 0.00 | 0.00 | 51 | 1016.6 |